TimeAKST,TemperatureF,Dew PointF,Humidity,Sea Level PressureIn,VisibilityMPH,Wind Direction,Wind SpeedMPH,Gust SpeedMPH,PrecipitationIn,Events,Conditions,WindDirDegrees,DateUTC
12:53 AM,-9.0,-15.0,75,30.17,10.0,SW,12.7,-,N/A,,Overcast,230,2013-01-09 09:53:00
1:53 AM,-9.9,-15.0,78,30.19,10.0,WSW,15.0,-,N/A,,Overcast,240,2013-01-09 10:53:00
2:53 AM,-9.0,-15.0,75,30.20,6.0,WSW,13.8,-,N/A,,Overcast,240,2013-01-09 11:53:00
3:53 AM,-11.0,-16.1,78,30.20,7.0,WSW,13.8,-,N/A,,Overcast,240,2013-01-09 12:53:00
4:53 AM,-9.9,-16.1,74,30.21,6.0,WSW,16.1,-,N/A,,Overcast,240,2013-01-09 13:53:00
5:53 AM,-9.9,-16.1,74,30.22,6.0,WSW,13.8,-,N/A,,Overcast,240,2013-01-09 14:53:00
6:53 AM,-9.9,-13.2,86,30.23,6.0,WSW,15.0,-,N/A,,Overcast,240,2013-01-09 15:53:00
7:53 AM,-9.0,-12.1,86,30.23,8.0,WSW,10.4,-,N/A,,Overcast,240,2013-01-09 16:53:00
8:44 AM,-7.6,-11.2,84,30.22,10.0,WSW,9.2,-,N/A,,Overcast,250,2013-01-09 17:44:00
8:53 AM,-8.0,-11.9,83,30.23,8.0,WSW,10.4,-,N/A,,Overcast,240,2013-01-09 17:53:00
9:53 AM,-8.0,-11.9,83,30.23,6.0,WSW,10.4,-,N/A,,Overcast,240,2013-01-09 18:53:00
10:53 AM,-8.0,-13.0,79,30.23,10.0,WSW,12.7,-,N/A,,Overcast,250,2013-01-09 19:53:00
11:53 AM,-8.0,-13.0,79,30.24,9.0,WSW,11.5,-,N/A,,Overcast,250,2013-01-09 20:53:00
12:53 PM,-7.1,-11.9,79,30.24,10.0,WSW,6.9,-,N/A,,Overcast,250,2013-01-09 21:53:00
1:30 PM,-7.6,-11.2,84,30.23,9.0,WSW,9.2,-,N/A,,Overcast,250,2013-01-09 22:30:00
1:51 PM,-5.8,-9.4,84,30.23,2.0,West,6.9,-,N/A,,Overcast,260,2013-01-09 22:51:00
1:53 PM,-6.0,-9.0,87,30.24,2.0,West,8.1,-,N/A,,Overcast,260,2013-01-09 22:53:00
2:01 PM,-5.8,-9.4,84,30.23,1.2,West,6.9,-,N/A,,Overcast,270,2013-01-09 23:01:00
2:53 PM,-6.0,-9.0,87,30.22,0.8,West,8.1,-,N/A,,Mist,280,2013-01-09 23:53:00
3:53 PM,-7.1,-9.9,87,30.22,0.8,WNW,6.9,-,N/A,,Mist,300,2013-01-10 00:53:00
4:12 PM,-7.6,-11.2,84,30.20,1.0,West,5.8,-,N/A,,Mist,280,2013-01-10 01:12:00
4:20 PM,-7.6,-11.2,84,30.20,0.8,West,8.1,-,N/A,,Mist,280,2013-01-10 01:20:00
4:48 PM,-7.6,-11.2,84,30.20,1.0,West,4.6,-,N/A,,Mist,280,2013-01-10 01:48:00
4:53 PM,-8.0,-11.9,83,30.21,1.0,WNW,6.9,-,N/A,,Mist,300,2013-01-10 01:53:00
5:02 PM,-7.6,-11.2,84,30.20,0.8,WNW,5.8,-,N/A,,Mist,290,2013-01-10 02:02:00
5:53 PM,-9.0,-13.0,83,30.19,1.0,West,6.9,-,N/A,,Mist,260,2013-01-10 02:53:00
6:03 PM,-9.4,-13.0,84,30.18,0.8,WNW,5.8,-,N/A,,Mist,290,2013-01-10 03:03:00
6:53 PM,-9.0,-13.0,83,30.18,1.2,West,6.9,-,N/A,,Overcast,270,2013-01-10 03:53:00
7:53 PM,-9.9,-14.1,82,30.17,1.0,West,3.5,-,N/A,,Mist,270,2013-01-10 04:53:00
8:00 PM,-9.4,-14.8,77,30.16,0.8,West,4.6,-,N/A,,Mist,280,2013-01-10 05:00:00
8:53 PM,-11.0,-16.1,78,30.17,0.8,WNW,5.8,-,N/A,,Mist,290,2013-01-10 05:53:00
9:53 PM,-11.9,-17.0,78,30.15,0.8,WNW,4.6,-,N/A,,Mist,290,2013-01-10 06:53:00
10:53 PM,-11.9,-17.0,78,30.14,0.8,NW,3.5,-,N/A,,Mist,310,2013-01-10 07:53:00
11:53 PM,-13.0,-18.9,75,30.13,2.0,WNW,3.5,-,N/A,,Overcast,300,2013-01-10 08:53:00